Location: Newark
(41.5333°N, 14.5500°E)
Time: 18:58:17
(UTC+00:00)

Envisat - Pass Details

Date: 02 February 2020
Orbit: 764 x 766 km, 98.1° (Epoch: 17 February)

Event Time Altitude Azimuth Distance (km) Brightness Sun altitude
Rises 04:35:48 0° 28° (NNE) 3,239 6.5 -18.5°
Reaches altitude 10° 04:38:44 10° 46° (NE) 2,307 6.0 -17.9°
Maximum altitude 04:42:24 20° 92° (E) 1,728 5.8 -17.2°
Drops below altitude 10° 04:46:01 10° 138° (SE) 2,295 6.2 -16.6°
Sets 04:48:55 0° 156° (SSE) 3,215 6.7 -16.0°
